Showing default

KINEIS-4A, 63303

Orbit data source: Space-Track

KINEIS-4A, 63303 is a French payload satellite in SSO that was launched on Tue, 18 Mar 2025 UTC via an ELECTRON launch vehicle from the Rocket Lab Launch Complex (RLLC). Payload-class satellites include a variety of spacecraft equipped with specific instruments for various scientific and technological missions. These include communications satellites like Starlink; space stations such as the ISS; scientific satellites like the Hubble; Earth observation satellites from companies like Planet Labs, Umbra, and HawkEye 360; GPS; miniature CubeSats for education and research; and military/defense satellites.

Loading next visibility...
Identifier
63303, 2025-056D
Orbit
SSO
Last TLE update
4 hours ago
Origin
Manufacturer
KINEIS
Mission
Operational Commercial Communications
Bus & Motor
CUBESAT 16U, Unknown motor
Mass
28 kg wet, 28 kg dry
Launch date (UTC)
2025-03-18 (4 months ago)
Launch vehicle
ELECTRON
Launch site
Rocket Lab Launch Complex (RLLC)
Object type
Payload
Rocket body
Debris
Shape & HBR
Box + 2 Pan + 1 Ant, 0.8 m
Radar Cross Section
0.229 m², Medium (>0.1 m² and < 1m²)

Expand to show TLE details & history

TLE from 4 hours ago
0 KINEIS-4A
1 63303U 25056D   25199.81513121  .00001366  00000-0  22396-3 0  9992
2 63303  97.9856 325.0097 0001112 286.6123  73.4962 14.72299593 18078
Epoch: 2025-07-18T19:33Z
TLE epoch observation values (Epoch: 2025-07-18T19:33:47.336Z)
Latitude
-0.00006°
Longitude
94.7013°
Altitude
656.523 km
Speed
7.529 km/s
True Right ascension
21h 40m 02s
True Declination
0° 00' 00"
Sunlit
Object was in full shadow at epoch
Visualization orbit readout
Latitude
55.27119°
Longitude
-73.53005°
Altitude
663.656 km
Speed
7.53 km/s
Apparent Right ascension
03h 46m 15s
Apparent Declination
37° 53' 16"
Sunlit
Object is in daylight
Visualization observer readout
Local Sidereal Time
12:10:48
Azimuth
320.371° NNW
Elevation
2.125°
Doppler factor
1
Orbital elements
Apogee altitude
651.573 km
Perigee altitude
650.01 km
Semi-major axis
7,028.928 km
Eccentricity
0.00011
Inclination
97.9856°
RAAN
325.0097°
Arg. of periapsis
286.6123°
True anomaly
73.50842°
Mean anomaly
73.4962°
Eccentric anomaly
73.50231°
Mean motion
3.68307 °/min
Orbital period
97.74 mins
BSTAR
0.00022396
Loading maneuver chart data...
Loading SW <> Apogee altitude chart data...
Loading historical data...
Loading historical data...
Loading historical data...
Loading historical data...
Loading historical data...
Loading historical data...
Loading historical data...
|